Wind_Speed
72 73 74 74 75 75 76 76 76 75 75 75 75 74 75 75 75 76 77 79 80 82 84 85 86 86 87 88 88 88 89 89 90 91 91 92 92 93 94 95 95 96 97 98 98 99 99 100 100 101 101 102 102 103 103 104 105 105 105 105 105 105 106 107 106 109 110 108 112 112 104 102 106 107 105 105 106 108 108 107 104 102 101 99 98 98 100 101
70 71 72 73 74 74 75 75 76 76 76 75 75 75 75 75 75 76 76 77 78 80 82 83 84 85 86 87 88 88 88 89 89 90 91 92 92 93 94 95 96 97 98 98 99 99 100 101 102 102 103 103 104 104 105 106 106 106 106 106 106 106 107 108 107 108 107 106 110 111 104 101 105 108 103 101 104 105 105 104 101 98 97 95 94 95 96 97
69 69 70 71 72 73 74 74 75 76 76 76 76 75 75 76 76 76 76 76 77 78 79 81 82 84 85 86 87 87 88 88 89 90 91 92 93 93 94 95 96 97 98 98 99 100 101 102 103 103 104 104 105 105 105 106 106 107 106 105 106 107 107 107 107 104 104 106 108 108 103 99 103 104 100 99 100 101 101 101 99 95 93 91 91 93 94 93
68 69 69 69 70 71 72 73 74 75 75 75 76 76 76 76 76 76 76 77 77 78 78 79 80 81 82 83 84 86 86 87 88 90 91 92 93 94 95 95 96 97 98 98 99 100 101 102 102 103 103 104 104 104 104 105 105 105 104 104 105 105 103 104 102 99 99 101 101 102 99 98 99 96 96 97 96 97 97 97 96 92 89 87 88 91 91 89
66 67 68 68 69 69 70 71 72 73 74 74 75 75 76 76 76 76 76 77 77 77 78 78 78 79 79 80 81 82 83 84 86 87 88 90 91 92 93 94 95 95 96 97 98 99 99 100 100 101 101 101 101 101 101 101 100 100 100 99 100 99 97 97 97 93 94 95 96 97 96 95 94 91 94 94 92 93 92 92 92 89 84 82 86 89 87 86
63 64 65 66 66 67 68 69 70 71 72 73 74 75 75 76 76 76 77 77 77 77 77 77 77 78 78 78 78 79 79 80 82 82 84 85 86 87 88 89 90 91 92 92 93 94 94 95 95 95 95 95 95 94 94 94 93 94 94 93 93 93 91 92 93 91 90 92 93 94 93 92 91 91 92 89 89 88 87 88 89 87 81 80 85 85 83 83
60 61 61 62 63 64 65 66 67 68 69 70 72 73 74 75 75 76 76 77 77 77 77 77 77 77 77 77 77 77 77 77 78 79 79 80 80 81 82 83 83 84 85 86 87 87 87 88 88 88 88 88 88 87 88 88 88 89 89 88 88 89 88 88 88 88 88 89 90 90 89 88 88 90 88 85 86 85 84 86 86 84 79 80 84 81 80 80
57 58 58 59 60 61 62 63 64 65 67 68 69 70 71 73 73 74 75 76 76 77 77 77 77 77 76 76 76 76 76 76 77 77 77 77 77 77 78 78 79 79 80 81 81 82 82 82 83 83 83 84 83 83 84 84 84 84 83 83 84 84 84 84 83 83 83 84 85 84 84 84 85 85 83 83 83 81 80 82 82 79 77 79 80 78 78 75
55 55 55 55 56 57 58 59 61 62 63 65 66 68 69 70 71 72 73 74 75 75 76 76 76 76 76 75 75 75 75 75 75 75 75 75 75 75 75 76 76 76 77 77 78 78 78 78 79 79 79 80 79 79 80 80 80 79 79 80 80 80 80 79 78 78 78 79 79 78 79 80 79 79 79 79 77 77 77 76 76 75 74 75 74 73 73 71
52 52 52 52 53 53 54 55 57 58 60 61 63 64 65 67 68 69 70 71 72 73 73 74 74 74 74 74 73 73 73 73 73 73 73 73 73 73 73 73 73 74 74 74 74 74 74 75 75 76 76 75 75 76 76 76 75 74 75 76 74 74 74 73 73 73 73 73 73 73 74 74 73 75 75 73 72 74 73 70 70 71 70 69 68 68 68 67
51 51 50 50 50 51 51 52 53 55 56 58 59 61 62 63 64 65 66 67 68 69 70 70 70 70 70 70 70 70 70 70 70 70 70 70 70 70 70 70 70 70 70 70 70 70 70 70 71 71 71 70 71 71 70 70 69 68 70 69 68 68 68 67 68 68 68 68 68 69 69 69 70 72 70 67 69 72 69 65 64 65 66 66 66 65 63 62
51 50 50 50 49 49 49 50 51 52 53 54 55 56 57 58 59 60 61 63 64 64 65 65 66 66 66 66 66 66 66 66 66 66 66 66 66 66 66 65 65 65 65 65 65 65 65 65 65 65 64 64 64 63 63 64 63 63 64 63 63 63 63 63 64 64 64 64 63 65 66 65 67 67 64 63 66 67 63 61 59 57 59 62 61 59 57 55
51 51 50 50 49 49 48 49 49 49 50 50 51 52 53 54 54 55 56 57 58 59 60 60 60 61 61 61 61 61 61 61 61 61 61 61 61 61 61 60 60 60 60 59 59 59 59 59 59 58 58 58 58 57 58 58 58 58 58 59 59 59 59 59 57 58 60 58 56 60 61 59 61 60 58 59 61 59 57 56 55 52 53 53 52 53 52 52
51 51 51 50 49 49 48 48 48 48 47 47 47 48 48 49 50 51 52 53 53 54 54 55 55 55 55 55 56 56 56 56 56 56 56 56 56 55 55 55 54 54 54 54 54 54 54 54 54 54 54 54 54 54 55 54 54 54 54 55 54 55 55 51 50 53 55 52 50 55 55 53 55 52 50 52 52 50 49 48 47 46 46 45 46 48 50 50
52 52 51 50 50 49 49 48 48 47 46 45 45 45 45 46 47 47 48 48 49 49 49 49 50 50 50 50 51 50 50 50 51 51 51 51 50 50 50 50 50 50 50 51 51 52 52 52 52 52 52 52 52 51 52 51 51 50 50 50 49 51 50 43 43 48 50 45 42 48 50 50 50 44 41 45 44 42 41 41 41 41 42 41 39 41 44 45
52 52 51 51 50 50 49 49 49 48 46 45 45 45 45 45 45 45 45 45 45 46 46 46 46 46 45 46 46 46 46 46 47 47 47 47 47 47 47 48 48 49 49 50 50 51 51 51 51 50 50 49 49 48 48 47 46 46 45 44 44 46 45 39 37 42 45 39 35 43 46 46 45 36 35 40 38 36 36 37 37 37 38 39 37 37 37 39
52 52 52 51 51 50 50 50 49 48 47 46 46 46 46 45 45 44 44 44 45 44 44 44 44 43 43 44 44 44 45 45 45 46 46 46 46 47 47 48 49 49 49 50 50 50 50 49 49 48 47 46 46 45 45 44 43 42 41 40 40 42 42 38 33 34 40 35 32 40 43 42 40 32 30 35 34 32 32 33 33 32 34 35 35 35 35 37
51 52 52 52 52 51 51 51 50 49 48 47 47 47 46 46 45 44 44 45 44 44 44 44 43 43 43 44 44 44 45 44 45 46 46 47 47 48 48 48 49 49 49 48 48 48 48 47 46 45 44 43 43 42 40 40 40 39 38 37 37 39 40 38 33 29 35 36 32 37 41 40 37 32 29 29 30 31 29 30 31 29 30 32 34 36 35 36
50 51 51 52 52 52 52 52 51 50 49 49 49 48 47 47 46 45 45 45 45 45 45 44 44 44 44 44 45 45 45 45 46 46 47 48 48 48 48 48 48 48 47 47 46 46 46 45 43 42 41 40 40 39 38 39 39 38 37 36 37 39 40 39 33 28 32 38 36 36 39 39 36 33 31 27 28 31 29 28 29 27 28 30 33 35 34 36
48 49 50 51 51 52 52 52 52 51 51 50 50 49 49 48 47 47 46 46 45 46 46 45 45 45 45 45 46 46 46 46 46 47 47 48 48 47 47 47 47 46 45 45 44 44 43 43 41 40 39 39 39 38 38 39 39 38 37 37 38 40 42 41 34 28 32 38 39 38 37 38 37 36 34 28 27 30 31 28 28 28 27 29 32 35 38 39
45 47 48 49 50 50 51 52 52 52 52 51 51 50 50 49 48 48 47 46 46 46 46 46 46 46 45 46 47 47 47 46 46 47 47 47 46 46 46 46 45 44 44 43 43 43 42 42 40 38 38 40 39 39 39 39 39 39 39 40 40 41 44 43 35 31 36 40 41 40 38 38 40 40 38 33 28 31 33 29 29 31 29 30 33 34 37 41
42 43 45 47 47 48 49 50 50 51 51 51 51 50 50 50 49 48 47 47 47 46 46 46 47 46 45 46 46 47 46 45 46 46 46 45 45 44 45 45 44 43 43 43 42 42 42 41 38 37 40 41 40 40 40 41 40 40 40 41 41 42 45 45 39 35 37 41 42 41 40 41 42 43 43 38 34 35 36 33 32 34 34 33 35 34 34 37
39 40 42 43 45 46 47 47 48 49 49 49 49 49 49 49 49 48 48 48 48 47 46 46 46 45 45 45 46 46 45 44 44 44 44 44 43 43 43 43 43 43 43 42 42 42 42 40 37 39 42 41 41 41 41 41 41 41 41 42 43 42 44 47 43 37 37 41 43 41 41 43 43 45 46 43 40 40 38 36 36 37 37 37 37 35 33 35
37 38 39 40 42 43 44 45 46 47 47 47 48 48 48 48 48 48 48 48 46 45 45 45 45 44 44 44 45 45 43 43 43 43 43 43 42 42 42 42 43 43 43 42 42 43 43 38 37 42 43 41 42 42 41 42 41 41 41 42 43 43 44 46 43 40 41 41 43 42 41 44 45 46 48 47 44 43 41 39 39 40 40 41 41 38 35 36
37 37 38 38 39 41 42 43 44 45 45 46 46 47 46 46 46 47 47 46 44 43 43 44 44 43 42 43 45 44 43 43 42 41 42 42 41 41 41 43 44 43 43 42 43 45 42 37 40 44 43 42 42 42 41 41 41 41 42 42 43 42 43 44 42 42 43 42 42 42 41 44 45 46 49 49 46 45 44 42 41 42 43 44 44 43 40 38
38 38 38 38 39 39 40 41 42 43 43 44 44 44 43 44 45 45 45 43 42 42 43 43 44 44 43 42 43 42 42 42 40 39 40 41 41 40 41 43 43 43 43 42 44 46 42 38 42 45 43 43 42 42 41 41 41 41 41 41 41 41 41 41 41 41 42 42 41 40 41 42 43 45 48 48 45 44 46 45 42 42 43 45 46 46 44 42
40 39 39 39 40 39 39 40 41 41 41 42 42 41 41 42 43 43 42 41 41 42 42 43 44 44 41 40 42 42 41 41 39 38 39 41 41 41 42 42 42 44 43 42 45 46 41 40 43 44 43 43 41 41 40 39 41 40 40 40 40 40 40 39 41 41 41 42 41 39 41 41 41 45 47 46 44 43 45 45 42 42 42 43 45 47 46 45
42 41 41 41 41 41 40 40 40 40 41 41 41 41 41 42 43 41 40 40 41 42 42 43 44 43 40 39 42 42 41 41 40 38 40 41 41 42 42 42 43 45 43 43 46 45 41 41 43 43 42 41 40 39 37 38 40 39 37 40 40 40 39 39 41 41 41 41 40 40 42 41 41 43 45 44 43 43 43 43 43 42 40 41 43 44 45 45
43 43 42 42 42 42 41 41 40 40 42 42 42 42 42 43 42 41 40 41 42 43 43 43 44 43 40 41 43 43 42 43 41 40 41 42 42 43 43 43 44 45 43 44 46 44 42 41 41 42 41 39 38 37 35 37 39 37 36 39 40 39 39 40 41 42 42 41 40 42 43 42 42 43 45 46 44 43 43 43 43 42 41 40 39 40 42 42
44 44 44 44 44 43 43 42 41 41 43 44 43 44 43 43 43 41 41 41 44 45 44 43 44 43 43 43 44 44 44 45 43 41 42 43 43 44 45 44 45 46 45 45 45 44 41 39 40 40 39 38 37 35 35 38 39 36 37 39 39 40 41 42 43 43 43 42 42 46 45 43 43 44 48 49 44 42 45 45 43 42 43 40 38 40 41 39
44 45 46 46 45 45 44 44 43 42 44 44 44 44 44 44 43 42 42 43 46 47 45 45 44 43 45 45 44 46 47 47 45 43 43 43 44 45 45 45 46 46 45 44 44 43 39 38 39 38 38 38 36 36 37 38 39 39 40 41 41 43 43 44 45 45 44 43 45 48 46 45 45 46 51 51 46 44 47 48 45 44 45 42 42 44 42 39
45 46 47 48 48 47 46 46 45 44 44 45 45 45 45 45 44 43 44 44 47 49 48 46 43 43 45 45 46 49 48 48 47 43 43 44 45 46 45 45 46 45 44 43 43 42 40 39 39 39 40 39 38 39 38 39 41 41 41 42 43 45 46 46 46 46 46 46 48 48 47 47 47 49 53 52 48 48 50 50 48 47 47 46 46 47 43 42
45 46 47 49 50 50 49 48 47 46 46 46 47 47 47 46 46 46 46 47 49 51 50 47 44 44 46 46 49 50 48 49 48 44 44 45 46 46 45 46 46 45 45 45 44 44 42 41 41 41 41 40 40 40 40 41 42 42 43 45 46 47 48 48 47 48 49 49 50 49 48 50 50 53 55 52 49 52 53 53 50 49 50 50 50 49 46 46
42 46 47 49 50 51 51 51 50 49 48 48 48 48 47 47 48 48 48 49 51 52 51 50 47 46 46 48 52 51 49 50 49 46 45 47 47 48 47 47 47 47 47 46 46 45 44 44 45 43 41 42 43 43 42 43 44 44 46 47 49 50 50 50 50 50 50 50 51 51 51 52 53 55 57 54 52 54 55 55 53 52 53 52 52 51 49 49
35 40 45 49 50 51 51 52 53 52 51 50 50 49 48 49 50 50 51 51 51 52 53 52 50 49 49 51 53 52 51 52 51 48 47 48 49 50 50 49 49 49 48 48 47 46 46 49 48 45 43 45 46 46 46 46 46 47 48 50 52 52 52 53 53 52 52 52 52 53 53 54 54 57 59 57 56 56 57 57 57 56 54 54 54 52 51 52
31 34 39 44 47 50 51 52 54 54 54 54 52 51 51 51 52 53 53 51 51 52 53 53 52 52 53 54 54 54 54 55 53 50 50 51 52 54 53 52 52 51 49 49 49 48 49 52 49 46 47 50 49 49 49 49 50 50 51 53 54 54 55 55 55 55 55 54 54 54 54 55 56 58 60 59 58 59 59 59 59 57 57 55 55 54 54 55
31 31 34 37 40 45 48 50 53 54 55 55 54 54 55 55 55 56 55 53 53 54 54 54 54 54 55 55 55 56 57 56 54 53 53 54 55 56 55 54 55 54 51 51 52 52 53 54 51 50 53 54 52 52 52 52 52 52 53 55 55 56 57 58 58 58 57 55 56 56 55 56 58 60 61 60 60 60 60 60 59 58 59 57 55 56 57 56
33 33 34 34 35 38 41 44 47 51 53 54 54 56 57 58 59 60 59 56 56 57 56 56 56 56 57 57 57 58 58 58 56 55 56 57 57 57 57 56 57 56 53 54 55 55 55 56 55 54 56 56 54 53 54 54 54 54 55 56 56 56 58 59 59 59 58 57 57 57 57 56 58 62 61 59 59 60 60 60 59 59 59 56 55 57 58 57
34 35 35 34 35 37 36 37 40 43 46 49 53 56 58 59 61 62 61 59 60 61 60 59 59 59 60 60 59 60 60 60 59 58 58 60 59 58 59 59 57 57 56 56 58 56 55 57 57 56 57 57 54 54 55 55 55 55 56 57 57 57 58 59 60 59 58 57 57 57 57 57 59 61 61 58 58 59 60 60 61 60 58 57 57 58 58 58
36 37 35 35 38 38 36 36 36 36 39 42 47 52 56 58 61 62 61 61 62 63 62 62 62 61 62 63 61 62 63 62 62 61 62 64 62 60 62 61 58 59 58 58 60 58 55 56 57 57 58 57 55 56 57 57 57 57 58 59 58 57 58 59 58 58 56 55 56 55 55 56 56 57 58 56 55 56 58 60 60 59 57 57 57 57 57 57
39 38 36 38 41 39 36 36 36 36 37 38 41 45 49 51 55 58 59 61 63 63 64 65 64 64 65 65 64 65 66 65 64 64 65 67 66 65 65 63 61 61 60 62 64 60 56 57 58 60 61 58 57 59 58 57 58 59 59 59 58 56 56 57 56 55 54 53 54 53 53 54 54 54 56 55 54 55 56 60 60 57 57 58 57 55 55 55
41 39 37 41 44 40 37 37 38 38 37 38 40 43 43 43 47 50 51 54 58 60 63 64 64 65 66 66 66 67 67 67 66 66 66 68 70 70 67 63 63 64 64 66 67 61 57 59 61 61 61 59 58 60 59 57 58 60 59 58 58 56 55 55 54 55 54 52 52 53 53 52 51 52 54 54 54 54 55 60 59 55 57 60 57 55 54 54
43 41 40 43 45 42 39 39 40 40 39 39 42 42 42 41 43 45 44 45 49 53 57 59 61 63 65 66 67 67 68 68 68 67 66 69 73 71 66 62 63 67 67 66 66 60 58 62 62 61 61 59 58 59 59 57 58 59 59 58 57 56 56 56 56 56 54 52 53 54 53 53 51 52 54 54 56 56 56 60 58 53 57 60 58 56 56 56
45 43 42 44 45 43 42 42 42 41 41 42 43 42 42 42 42 43 42 43 45 47 47 48 53 58 60 62 64 65 67 68 68 67 66 70 73 69 66 63 62 68 69 64 62 60 60 63 62 60 59 58 57 58 59 60 59 59 59 59 57 57 58 59 58 56 54 54 56 55 53 54 55 55 56 56 58 58 59 61 59 56 58 61 60 58 58 59
47 46 44 45 46 46 45 45 44 43 44 46 44 42 43 43 44 43 42 43 44 44 43 43 47 50 51 54 57 59 63 64 64 65 65 69 71 68 67 65 63 67 67 62 63 64 63 63 61 60 59 58 57 58 60 63 61 58 59 60 59 59 60 60 58 57 56 56 57 55 54 56 58 57 57 58 59 60 61 63 62 59 60 62 61 60 60 60
50 48 46 46 48 48 47 46 46 46 47 48 46 44 45 46 46 44 43 44 44 42 42 43 45 45 46 48 48 50 55 58 58 60 62 64 67 66 64 63 63 65 65 63 65 66 64 63 62 62 61 59 59 60 62 65 63 59 60 62 61 61 60 59 58 58 58 57 56 55 56 59 59 59 60 61 60 61 63 65 65 63 61 61 60 60 61 60
51 50 50 49 49 50 49 48 48 49 50 49 47 47 48 48 48 46 45 47 45 42 43 44 43 43 44 46 46 45 49 52 52 55 57 59 63 62 59 59 61 62 62 64 65 65 64 63 63 63 63 61 61 62 63 66 65 63 63 63 62 62 61 61 60 59 60 59 56 56 60 61 60 61 63 63 62 63 65 66 66 65 63 61 59 61 62 60
53 53 53 52 52 52 50 50 50 51 52 51 50 50 50 50 51 50 47 48 46 42 44 46 44 43 45 46 46 44 45 47 48 49 51 53 56 57 55 55 56 57 59 62 62 61 61 61 61 63 62 61 62 62 63 65 66 65 66 64 62 62 63 63 62 60 62 61 58 58 62 62 61 63 66 66 65 65 66 67 67 66 65 61 59 61 63 61
54 54 54 54 55 54 52 52 53 53 54 54 53 52 52 52 54 53 50 50 48 44 46 47 44 46 48 47 46 44 43 45 45 46 48 49 51 52 51 49 50 51 54 58 59 57 56 58 60 59 59 59 60 61 63 64 65 66 66 65 63 63 64 64 63 62 63 62 60 60 62 62 63 66 67 68 68 67 67 68 67 67 67 62 58 61 64 62
55 55 56 56 56 54 54 55 55 56 56 56 55 54 53 54 55 55 54 52 49 48 48 48 46 49 50 48 47 46 43 44 45 46 48 48 48 50 50 47 46 47 49 52 56 54 52 54 56 56 56 56 57 59 60 62 64 65 64 64 64 64 64 64 63 63 64 64 63 64 64 62 64 68 68 68 69 69 69 69 67 66 66 63 60 61 62 62
56 56 56 57 57 55 56 56 57 58 58 57 56 55 55 56 57 58 57 52 50 52 52 50 49 50 51 52 50 46 44 46 48 48 48 49 49 50 50 48 47 46 46 49 52 53 51 51 52 54 53 51 52 56 57 60 62 61 60 61 63 63 63 64 64 64 64 65 66 65 64 63 66 69 68 67 69 70 70 69 67 66 65 63 62 62 61 60
56 56 57 57 57 56 57 57 59 59 58 56 56 56 57 58 58 59 58 54 53 56 55 52 52 54 55 54 50 47 48 51 51 50 51 51 52 51 50 50 49 48 48 49 50 52 52 51 51 53 49 46 50 54 56 58 58 55 55 59 61 61 62 62 64 63 64 66 67 65 65 64 66 67 67 68 69 70 69 67 67 67 66 66 66 64 62 60
Wind_Direction
248 248 248 248 248 248 248 248 248 249 250 250 250 250 250 250 250 250 250 250 250 250 250 250 250 250 250 251 251 251 251 252 252 252 253 253 253 254 254 255 255 255 256 256 257 257 258 258 258 259 259 260 260 260 261 261 261 262 262 263 263 264 264 265 265 265 265 267 269 269 269 269 270 269 268 269 270 270 270 270 271 271 272 272 272 272 272 272
248 248 248 249 249 249 248 249 249 249 250 250 251 251 251 251 251 251 251 251 251 251 251 251 251 251 251 251 251 251 252 252 253 253 253 253 253 254 254 255 255 255 256 257 257 257 258 258 259 259 259 260 260 261 261 262 262 263 263 264 264 265 265 265 265 265 267 268 269 269 268 268 269 268 268 268 269 269 270 270 270 271 271 272 271 271 271 272
248 248 249 249 249 249 249 249 250 250 250 250 251 251 252 252 252 252 252 252 252 252 252 252 252 252 252 252 252 252 252 253 253 253 254 254 254 254 255 255 255 256 256 257 257 258 258 259 259 260 260 261 261 262 262 263 264 264 264 265 265 265 265 266 266 267 268 268 268 268 268 268 267 268 268 268 268 269 269 269 269 270 270 270 270 271 271 271
248 249 249 249 249 250 250 250 250 251 251 251 251 252 252 253 253 253 253 253 253 253 254 253 254 254 253 253 253 253 254 254 254 254 254 255 255 255 256 256 257 257 258 258 259 259 260 260 261 261 262 262 263 263 264 264 265 265 266 266 266 266 266 267 267 267 267 267 267 268 267 266 266 268 268 267 267 267 268 269 269 269 269 270 270 270 270 271
249 249 249 249 250 250 250 250 251 251 251 252 252 252 253 253 253 254 254 254 255 255 255 255 255 255 255 255 255 255 255 255 255 256 256 256 256 257 257 258 258 259 259 260 260 261 261 262 262 263 263 264 264 265 265 265 266 266 266 266 266 266 267 267 267 266 266 266 266 267 267 266 267 266 266 266 266 267 268 268 269 268 268 269 269 269 270 271
249 249 250 250 250 250 251 251 251 251 252 252 252 253 253 253 254 254 254 255 255 256 256 256 257 257 257 257 257 257 257 257 257 257 257 258 258 258 259 259 259 260 260 261 261 262 262 263 263 264 264 264 265 265 266 266 266 267 266 267 267 268 267 267 268 267 266 267 267 267 267 267 267 266 265 267 266 266 266 267 267 267 267 267 267 268 269 270
249 249 250 250 250 251 251 252 252 252 252 252 253 253 253 254 254 254 255 255 255 256 256 257 257 258 258 258 258 258 258 259 259 259 259 259 259 259 260 260 260 261 261 262 262 262 263 264 264 265 265 265 266 266 267 267 267 267 268 268 268 268 268 268 268 268 268 268 268 268 268 267 267 266 267 266 266 266 266 266 267 267 267 266 266 267 268 269
248 249 249 250 251 251 251 252 252 253 253 253 253 253 254 254 254 255 255 255 256 256 257 257 257 258 258 259 259 259 260 260 260 260 260 260 260 261 261 261 261 262 262 262 263 263 264 264 265 265 266 266 266 267 267 267 267 268 268 268 268 269 269 269 269 269 268 268 268 268 268 267 267 267 267 266 266 266 266 266 267 267 266 265 266 266 267 267
247 248 249 250 250 251 252 252 252 253 253 253 253 253 254 254 254 255 255 255 256 256 257 257 258 258 259 259 259 260 260 260 260 261 261 261 261 261 261 262 262 262 263 263 263 264 264 265 265 265 265 266 266 267 267 267 267 268 268 268 268 269 269 269 269 269 268 268 268 268 268 267 267 267 266 266 267 266 265 265 266 266 265 265 266 266 266 266
247 247 248 249 250 251 252 253 253 254 254 254 254 254 254 254 254 255 255 256 256 256 257 257 258 258 259 259 260 260 260 260 261 261 261 261 261 261 261 262 262 262 263 263 263 264 264 264 264 265 265 266 266 266 267 267 268 268 268 268 269 269 269 270 269 269 269 269 269 269 268 268 268 266 266 267 266 265 265 265 265 264 264 264 264 264 264 265
246 247 248 249 251 252 253 254 254 255 255 254 254 254 254 254 255 255 255 256 256 256 257 258 258 258 259 259 260 260 260 260 260 260 261 261 261 261 261 262 262 262 263 263 263 263 264 264 264 264 265 265 265 266 267 267 267 267 268 269 269 269 270 270 269 270 270 269 269 269 268 268 267 266 267 267 265 265 266 265 264 264 263 261 261 262 262 263
246 247 249 250 251 252 253 255 255 256 256 255 255 255 255 255 255 255 256 256 256 256 257 257 258 258 259 259 260 260 260 260 260 260 260 261 261 261 261 261 262 262 262 262 262 262 263 263 263 264 264 265 265 266 267 267 267 268 269 269 269 269 269 269 270 271 270 269 270 269 267 267 266 266 267 266 264 265 265 263 262 261 261 260 261 262 262 261
246 247 249 250 251 252 254 255 256 256 256 256 256 256 255 255 255 256 256 256 256 257 257 258 258 258 259 259 259 259 260 260 260 260 260 260 260 260 260 260 261 260 261 261 261 261 262 262 263 264 264 265 266 266 266 267 268 268 269 269 269 269 269 270 271 271 270 269 269 268 267 267 267 267 267 265 265 266 265 263 261 259 258 258 258 258 258 258
245 247 248 250 251 252 254 255 256 256 256 256 256 256 256 256 256 256 257 257 257 257 258 258 258 258 258 258 258 258 258 259 259 259 259 259 258 259 259 259 259 259 259 260 260 261 261 262 263 264 264 265 265 266 266 267 268 268 268 269 269 269 269 271 271 269 269 269 270 269 269 267 266 267 268 267 267 266 264 263 261 258 256 255 253 252 251 252
245 246 248 249 250 252 253 254 255 255 256 256 256 256 256 256 256 256 257 257 257 257 257 257 257 257 257 257 257 257 257 257 257 257 257 257 257 257 257 257 258 258 259 259 260 261 262 262 263 263 264 264 265 265 266 266 267 267 268 268 268 268 268 268 269 270 270 270 272 271 270 268 266 267 268 267 265 265 263 260 258 257 255 252 250 248 246 245
246 247 248 249 250 251 253 254 254 255 255 255 255 255 256 256 256 256 256 257 257 257 257 257 256 256 256 257 257 256 256 256 256 257 257 256 256 256 257 257 258 258 259 259 260 261 261 262 262 262 263 263 264 264 264 264 265 265 266 267 268 269 269 266 267 272 273 271 272 272 271 270 269 267 266 266 265 264 262 258 256 255 254 251 246 242 241 241
246 247 248 248 249 251 252 253 254 254 255 255 255 255 256 256 256 256 256 256 257 257 257 256 256 256 256 256 257 256 256 256 256 257 257 257 257 257 257 257 258 258 259 259 260 260 260 261 261 261 262 262 262 262 263 263 264 264 265 266 268 270 271 266 262 269 275 272 269 271 272 272 272 268 264 268 267 262 261 258 254 251 250 248 243 238 235 236
247 247 248 249 249 250 252 253 254 254 254 255 255 256 256 256 256 256 256 256 256 256 257 256 256 256 256 257 257 256 256 256 257 257 258 258 258 257 257 257 258 258 258 258 259 259 259 259 259 260 260 260 261 262 263 264 264 264 265 266 268 269 270 268 262 264 273 274 268 269 273 274 275 272 264 266 268 263 258 258 255 248 246 244 240 235 232 230
247 247 248 249 249 250 251 252 253 254 254 255 255 256 256 256 256 256 256 256 256 257 257 257 257 256 257 257 257 257 257 257 257 258 258 258 258 258 258 258 258 257 257 257 257 257 257 257 258 258 259 260 261 262 263 264 264 265 266 267 268 269 270 269 266 263 268 272 270 269 273 277 278 275 268 263 267 267 261 258 257 251 245 243 240 233 230 229
248 248 248 249 249 250 251 252 253 253 254 254 255 255 256 256 256 256 256 256 257 257 258 258 258 257 258 258 259 258 258 258 258 258 258 258 258 258 258 258 257 257 256 256 255 255 255 255 256 257 258 259 260 262 263 264 266 267 268 268 269 270 271 270 267 266 268 270 272 271 273 277 277 276 272 264 263 267 264 259 258 255 247 243 241 234 233 236
248 248 249 249 249 250 251 251 252 253 253 254 254 255 255 256 256 256 256 257 257 257 258 258 259 259 259 259 259 259 259 259 259 258 258 258 258 258 257 257 256 255 254 253 253 253 253 254 255 257 258 259 260 261 263 264 266 267 268 269 270 270 271 272 270 268 269 269 270 272 273 274 275 275 275 270 265 265 266 263 261 259 252 245 243 238 238 242
249 249 249 249 250 250 251 251 252 253 253 253 254 254 255 255 256 256 256 257 257 257 258 259 259 259 259 259 259 259 259 259 259 258 258 257 257 256 256 255 255 254 253 251 252 252 253 254 255 257 257 258 260 261 262 263 265 266 267 268 269 269 271 272 270 266 267 269 270 272 273 273 274 274 275 274 269 266 266 264 262 261 257 252 248 242 240 244
249 249 250 250 250 250 250 251 251 252 252 253 253 254 254 255 255 256 255 256 256 257 258 259 259 259 259 259 259 258 258 258 258 258 257 257 256 255 255 254 253 251 250 250 251 252 252 254 256 256 257 258 259 260 261 263 264 265 266 267 267 268 269 271 272 271 269 269 270 271 272 272 273 273 272 271 269 266 265 264 263 263 262 260 256 249 244 246
249 250 251 251 250 250 250 250 251 251 252 252 253 253 254 254 255 255 255 255 256 257 257 257 257 257 257 257 257 257 258 257 257 257 257 256 256 255 254 253 252 250 250 250 250 251 251 253 256 256 256 257 258 259 260 262 263 264 265 266 267 268 269 271 274 275 271 269 270 271 271 270 270 270 270 270 269 268 267 266 265 265 265 264 263 259 252 249
249 250 251 251 251 251 251 251 251 251 251 251 252 252 253 254 254 254 255 255 256 256 256 255 255 255 255 255 256 257 256 256 255 255 256 256 255 255 255 253 252 251 251 250 250 251 250 251 254 256 257 257 258 259 260 261 262 263 264 264 266 267 269 271 272 272 271 270 269 269 268 268 268 269 269 269 269 270 269 267 265 265 265 265 265 263 260 256
249 250 251 251 252 252 252 251 251 250 251 251 251 252 253 253 253 253 254 255 254 254 253 253 253 253 253 255 257 257 255 255 254 254 255 255 254 254 254 254 254 253 252 251 251 252 250 249 253 256 257 258 258 259 260 261 262 262 263 264 265 266 267 268 268 267 268 269 268 268 267 266 267 267 267 268 269 269 269 268 265 264 264 265 266 266 264 261
248 250 251 252 252 253 252 252 251 250 250 251 251 251 251 251 252 253 253 253 252 252 252 252 252 253 253 254 255 255 255 254 253 252 253 254 253 252 252 253 255 254 253 253 253 253 251 249 253 255 256 257 258 259 259 261 261 260 261 263 263 264 264 265 266 266 266 266 267 267 266 265 265 265 266 268 269 268 268 269 268 266 265 265 266 266 266 265
248 249 250 251 252 253 253 253 251 248 247 249 249 249 249 249 251 252 253 252 252 251 250 252 253 253 253 252 253 254 254 253 252 250 250 251 252 252 252 252 254 254 253 253 253 254 252 250 253 255 255 256 256 256 258 259 260 260 261 263 263 263 264 264 265 266 265 266 268 267 266 266 265 266 268 269 269 268 268 269 268 267 266 264 265 266 266 266
248 248 249 250 251 252 253 254 252 248 246 246 247 247 247 248 250 251 252 253 253 251 249 250 253 254 253 252 252 253 253 253 251 249 250 251 252 253 253 252 253 254 253 253 254 254 253 252 252 254 254 254 255 256 257 258 259 260 261 262 264 264 264 263 263 264 264 266 267 266 266 267 267 267 268 267 267 269 269 268 268 268 267 264 264 265 265 265
248 248 248 249 250 251 251 252 251 248 246 246 246 246 247 249 250 251 251 253 254 252 250 249 250 253 253 252 253 253 253 253 252 250 251 251 252 252 253 253 253 254 253 253 254 254 253 252 251 253 254 255 256 258 258 259 261 261 261 262 263 263 262 262 262 263 264 266 266 265 265 265 266 268 268 268 269 269 270 269 269 270 269 268 267 266 263 264
249 248 248 248 249 250 250 251 251 249 248 248 247 247 248 249 250 251 252 253 254 254 251 249 248 250 252 253 253 253 253 253 252 251 251 252 253 252 253 253 253 254 253 253 254 253 252 252 253 254 255 256 257 258 259 261 263 263 262 263 263 263 262 262 263 264 265 265 264 265 266 267 267 267 267 269 271 270 270 270 270 270 270 270 269 267 266 266
249 249 248 248 248 249 250 250 250 250 249 249 249 249 249 250 251 252 252 252 254 254 252 250 248 249 252 253 253 253 253 254 253 251 252 253 254 254 254 254 254 254 255 254 254 254 252 250 252 253 254 255 257 258 259 261 263 263 264 264 264 263 263 263 264 265 266 265 264 265 267 268 268 267 266 269 272 271 270 269 270 270 271 270 268 267 268 267
249 249 249 249 248 248 249 249 250 250 249 249 249 250 251 252 252 252 251 251 253 254 254 252 250 249 251 252 253 253 253 254 254 253 253 254 255 255 255 255 255 255 255 254 254 254 253 251 251 252 254 257 258 259 261 262 263 264 264 264 264 264 264 264 264 264 264 265 265 266 267 267 267 267 268 269 270 269 269 268 269 269 269 269 269 269 269 268
252 250 249 249 249 249 249 249 250 250 249 250 250 251 251 252 252 252 251 251 251 254 255 254 251 250 250 252 253 254 254 255 255 254 254 255 256 256 256 256 256 255 255 255 254 254 255 254 252 252 255 259 260 260 261 263 264 263 263 263 263 263 263 263 263 263 263 264 265 266 266 265 266 266 268 269 268 267 268 269 268 267 267 268 268 269 269 269
255 253 251 250 250 249 249 249 249 249 249 249 250 251 251 252 252 252 251 250 251 253 255 254 253 251 251 251 253 254 254 255 256 255 255 257 258 257 256 255 256 256 256 256 256 256 256 256 255 254 256 258 260 261 262 263 264 263 263 264 263 263 264 264 265 264 264 264 264 265 265 265 265 265 266 266 265 265 266 267 267 267 268 268 269 270 270 269
257 256 254 253 252 251 250 249 249 250 250 250 250 250 251 251 251 252 252 252 252 253 254 254 253 252 252 252 253 255 255 256 256 257 257 257 257 257 257 257 256 256 256 257 257 257 256 256 257 257 257 257 259 261 262 262 263 263 264 264 264 265 265 265 265 265 265 265 265 265 265 265 265 264 264 265 264 264 265 265 267 268 269 269 269 270 270 269
257 256 256 255 254 253 252 251 250 250 250 251 250 250 250 251 251 252 252 251 252 253 253 254 254 254 254 254 254 255 256 257 258 258 258 257 257 257 258 258 257 256 256 257 257 256 257 258 258 258 259 259 260 261 262 262 262 262 263 264 265 266 266 266 266 266 266 266 265 265 264 264 264 263 263 264 265 265 265 265 266 266 267 268 269 269 268 269
257 257 256 255 256 255 254 253 252 251 251 251 251 250 250 251 251 252 252 251 252 253 253 254 255 255 255 255 255 256 257 258 258 257 257 257 257 258 259 258 258 259 257 257 257 257 258 260 260 260 261 261 261 262 262 262 262 262 262 263 265 266 266 267 267 267 267 266 265 265 264 262 262 262 263 264 265 266 266 266 266 265 265 266 266 266 266 267
255 256 256 256 256 255 255 254 254 253 252 251 250 250 250 250 250 251 252 252 252 253 253 253 254 255 256 256 257 257 258 258 258 257 257 257 257 258 259 259 259 260 259 259 259 258 259 261 262 261 262 262 262 262 262 262 262 262 262 263 263 264 265 266 266 266 266 266 265 264 263 262 262 263 265 264 265 266 267 267 265 265 266 266 265 265 267 267
255 255 255 256 256 254 254 255 255 254 254 252 251 250 250 250 250 251 252 252 252 253 253 253 254 255 256 257 257 258 258 258 258 259 259 259 258 257 258 258 259 260 261 261 260 259 259 261 263 263 262 262 263 262 262 263 263 263 263 263 264 264 264 264 265 266 266 265 264 264 263 263 263 264 266 266 266 267 268 268 267 267 267 266 265 265 266 267
255 255 255 256 256 253 253 255 256 255 254 254 253 253 252 251 252 252 251 251 252 252 253 253 254 255 255 256 257 257 258 258 259 259 260 260 259 258 257 258 260 261 261 261 260 260 261 262 263 263 263 264 264 264 264 265 265 264 264 264 264 263 262 262 263 264 264 264 264 264 263 263 264 264 265 265 265 266 267 268 268 269 269 268 267 266 266 267
254 254 254 256 256 254 252 253 254 254 254 255 255 255 255 254 254 254 253 252 252 252 252 253 254 254 255 256 256 257 258 258 258 259 260 261 261 259 258 259 261 260 260 260 261 262 262 262 262 262 263 264 264 265 265 264 264 264 264 264 264 262 261 261 261 261 261 262 264 263 262 262 263 264 264 263 264 265 266 266 267 269 270 269 268 269 268 268
253 251 252 255 257 256 254 252 253 253 252 253 254 255 256 256 256 257 256 254 253 252 252 253 253 253 254 254 255 256 257 258 258 258 259 260 260 261 261 261 261 261 259 260 262 263 262 260 259 260 262 263 263 263 264 262 261 262 262 262 262 262 261 260 259 260 260 261 261 261 262 262 262 262 263 264 264 263 264 265 267 267 268 269 270 270 269 268
254 251 250 253 255 256 254 253 252 253 253 253 253 254 255 256 256 257 257 256 255 254 254 254 254 253 253 254 255 256 256 257 258 258 258 259 261 262 262 261 260 261 261 261 263 262 259 259 259 260 260 261 260 261 261 259 258 259 261 261 260 260 260 260 260 260 260 260 260 261 262 263 262 261 263 264 264 264 263 264 266 265 266 269 270 271 271 270
254 252 249 250 253 253 253 253 253 253 253 253 252 254 256 256 256 256 256 256 256 257 257 255 254 255 255 255 255 255 257 257 258 258 258 259 260 261 261 261 260 261 263 263 262 260 258 259 260 260 259 258 258 258 258 258 258 258 259 260 259 258 259 260 261 261 261 260 262 263 263 262 262 261 262 262 263 265 265 265 266 266 267 269 270 271 270 269
253 253 251 250 251 251 251 253 254 253 253 253 253 254 255 255 255 254 254 255 255 257 257 256 256 257 257 257 256 255 256 256 256 257 257 258 260 260 260 261 260 261 262 262 261 261 260 260 260 259 258 258 257 256 257 259 259 258 257 258 259 260 260 261 261 262 261 261 262 264 263 261 262 262 261 261 261 264 265 266 267 267 268 269 270 270 268 268
253 253 252 251 251 252 251 251 253 253 254 255 254 253 253 255 255 254 254 255 255 256 258 258 258 259 258 258 257 254 255 257 256 256 257 258 259 260 260 259 259 260 261 260 260 261 261 260 260 260 259 257 256 256 257 259 260 259 258 258 258 260 260 260 260 260 261 260 260 261 261 261 262 262 262 262 261 262 264 266 267 268 267 268 268 268 267 267
252 252 252 252 251 251 251 251 252 253 254 255 254 254 255 255 256 254 254 255 254 254 257 258 258 259 258 257 258 256 256 257 258 258 258 259 260 261 260 259 259 259 260 260 260 260 261 261 260 259 259 258 257 256 256 258 259 259 259 259 259 259 259 259 259 259 260 260 260 260 261 262 263 263 263 264 263 262 263 265 267 267 267 266 266 267 267 266
251 251 251 252 251 251 252 252 252 253 253 254 254 255 255 256 257 256 255 255 255 254 256 258 258 259 258 258 259 259 258 259 260 261 260 260 260 261 260 258 258 258 258 260 261 260 260 260 259 259 259 258 258 257 256 257 257 258 258 259 259 258 259 259 260 260 260 261 260 259 260 262 263 264 264 265 266 265 265 265 266 267 268 267 266 266 267 266
251 250 250 251 251 251 251 252 252 252 252 253 254 255 256 256 258 258 256 255 256 256 255 256 257 258 259 259 259 259 260 262 262 261 261 261 261 262 262 260 257 255 256 259 261 261 258 258 259 259 258 258 258 258 257 257 257 257 258 258 258 258 259 260 260 260 261 261 260 259 259 261 263 264 265 266 268 268 267 267 267 268 268 268 266 265 266 268
251 250 250 250 251 251 251 251 252 252 252 253 254 255 256 256 257 258 258 257 257 256 255 254 255 257 258 258 258 259 261 261 261 261 261 262 261 261 262 262 260 258 255 256 259 261 259 258 259 258 258 258 258 258 257 257 257 257 258 259 259 259 260 260 260 260 261 261 261 261 261 262 262 264 266 267 268 268 268 270 270 270 269 269 268 266 267 268
251 250 250 250 250 250 250 251 251 252 253 253 254 254 254 255 256 257 259 259 257 256 256 255 255 256 256 257 258 259 259 259 259 259 259 259 260 261 262 263 263 262 260 258 257 259 260 259 258 259 259 258 258 258 258 257 258 260 260 259 259 258 258 259 260 261 261 261 262 262 262 261 262 264 265 266 266 268 269 271 272 272 272 271 269 267 267 267
Height
10637 10639 10641 10643 10646 10648 10651 10653 10655 10657 10659 10661 10663 10665 10667 10668 10670 10672 10674 10676 10678 10680 10682 10684 10686 10689 10691 10693 10696 10698 10701 10703 10705 10707 10709 10711 10712 10714 10715 10716 10717 10719 10719 10721 10722 10723 10724 10725 10725 10726 10727 10729 10730 10731 10733 10732 10733 10736 10736 10739 10741 10741 10741 10739 10744 10737 10733 10741 10725 10725 10752 10757 10743 10740 10746 10749 10744 10737 10738 10743 10748 10753 10754 10757 10758 10754 10752 10753
10630 10632 10634 10636 10639 10641 10644 10646 10648 10650 10652 10654 10656 10658 10660 10662 10664 10666 10668 10669 10671 10672 10674 10677 10679 10681 10683 10686 10689 10691 10694 10696 10698 10699 10701 10703 10704 10706 10707 10708 10709 10710 10711 10713 10713 10714 10715 10715 10716 10717 10719 10721 10721 10723 10724 10723 10725 10727 10727 10731 10732 10730 10730 10729 10732 10729 10729 10736 10721 10716 10739 10747 10732 10726 10738 10744 10732 10728 10732 10731 10739 10747 10746 10747 10748 10745 10745 10746
10624 10626 10628 10630 10632 10634 10637 10639 10641 10643 10645 10648 10650 10652 10654 10656 10658 10659 10661 10662 10664 10666 10668 10670 10672 10674 10676 10679 10681 10684 10687 10689 10691 10692 10693 10695 10696 10698 10699 10700 10701 10702 10703 10704 10705 10705 10707 10707 10708 10709 10710 10712 10713 10714 10716 10716 10716 10716 10719 10723 10721 10718 10720 10719 10721 10727 10725 10721 10713 10709 10726 10732 10720 10721 10729 10732 10725 10722 10725 10721 10729 10741 10740 10738 10739 10736 10736 10738
10618 10619 10622 10624 10626 10628 10630 10632 10634 10636 10639 10641 10643 10646 10648 10649 10651 10653 10654 10656 10657 10659 10661 10663 10665 10667 10669 10672 10674 10677 10679 10682 10683 10684 10686 10687 10688 10690 10691 10692 10693 10694 10695 10696 10696 10697 10698 10698 10699 10701 10702 10704 10704 10706 10707 10707 10707 10706 10710 10712 10708 10708 10712 10709 10712 10721 10714 10708 10706 10701 10713 10715 10711 10721 10717 10716 10719 10715 10717 10715 10718 10732 10735 10731 10729 10728 10727 10730
10611 10613 10615 10617 10620 10622 10624 10626 10628 10630 10632 10635 10637 10639 10641 10643 10645 10646 10648 10649 10651 10653 10654 10656 10658 10660 10662 10664 10667 10669 10673 10675 10675 10677 10678 10679 10681 10682 10683 10685 10686 10686 10687 10688 10688 10688 10690 10690 10691 10692 10693 10695 10696 10697 10697 10698 10700 10697 10699 10700 10696 10699 10704 10699 10701 10710 10704 10699 10697 10692 10701 10704 10707 10713 10702 10706 10714 10708 10711 10710 10709 10720 10730 10726 10718 10719 10720 10722
10605 10607 10609 10611 10613 10615 10617 10619 10621 10624 10626 10628 10630 10632 10634 10636 10638 10639 10641 10642 10644 10646 10647 10650 10651 10653 10655 10658 10660 10662 10666 10667 10667 10669 10670 10671 10673 10674 10676 10677 10678 10678 10678 10679 10680 10680 10681 10682 10683 10684 10685 10686 10687 10689 10688 10688 10690 10687 10688 10691 10688 10690 10695 10691 10689 10696 10695 10690 10687 10687 10692 10695 10697 10696 10695 10704 10703 10702 10706 10702 10701 10710 10723 10719 10707 10712 10715 10715
10599 10601 10603 10605 10607 10609 10611 10613 10615 10617 10619 10622 10623 10625 10627 10629 10631 10632 10634 10636 10637 10639 10641 10643 10644 10646 10648 10651 10654 10656 10659 10659 10659 10661 10662 10664 10665 10666 10668 10669 10670 10670 10670 10671 10672 10673 10673 10674 10675 10676 10677 10677 10679 10681 10679 10679 10680 10678 10680 10683 10680 10680 10682 10682 10682 10684 10684 10680 10679 10681 10683 10685 10686 10683 10691 10695 10690 10697 10700 10694 10695 10702 10713 10707 10699 10708 10709 10709
10594 10596 10598 10599 10602 10603 10605 10607 10609 10611 10613 10615 10617 10618 10620 10622 10624 10625 10627 10629 10630 10632 10634 10636 10637 10639 10642 10644 10647 10649 10651 10652 10652 10653 10654 10656 10657 10659 10660 10661 10662 10662 10663 10664 10664 10666 10666 10668 10668 10668 10669 10668 10671 10672 10670 10671 10670 10671 10674 10673 10671 10671 10672 10674 10675 10674 10673 10671 10671 10674 10674 10675 10675 10676 10683 10683 10683 10691 10691 10688 10689 10695 10701 10694 10694 10703 10702 10703
10588 10590 10592 10594 10596 10598 10600 10602 10603 10605 10606 10608 10610 10612 10613 10615 10617 10619 10620 10622 10623 10625 10627 10629 10630 10633 10635 10637 10640 10642 10643 10644 10645 10646 10647 10649 10650 10651 10652 10653 10654 10655 10656 10657 10658 10659 10659 10661 10660 10660 10661 10661 10664 10663 10663 10663 10663 10665 10664 10663 10664 10664 10664 10665 10666 10664 10664 10663 10664 10666 10665 10666 10668 10669 10671 10674 10679 10680 10682 10685 10684 10686 10689 10686 10689 10693 10693 10696
10583 10585 10587 10589 10591 10592 10594 10596 10597 10599 10600 10602 10604 10605 10607 10609 10611 10612 10613 10615 10617 10618 10620 10622 10624 10626 10628 10630 10632 10634 10635 10637 10637 10638 10640 10641 10642 10644 10645 10646 10647 10648 10649 10650 10650 10652 10652 10653 10653 10653 10653 10655 10656 10655 10655 10655 10657 10658 10654 10655 10658 10656 10656 10657 10656 10656 10656 10656 10657 10658 10656 10659 10661 10658 10661 10670 10672 10667 10674 10681 10677 10677 10680 10682 10683 10683 10686 10688
10578 10580 10582 10584 10585 10587 10589 10591 10592 10593 10594 10596 10598 10599 10601 10602 10604 10605 10607 10608 10610 10611 10613 10615 10617 10619 10621 10623 10625 10627 10628 10629 10630 10631 10633 10634 10635 10636 10638 10639 10640 10641 10642 10643 10644 10644 10645 10645 10645 10646 10647 10648 10647 10648 10650 10649 10650 10650 10647 10649 10651 10649 10650 10649 10648 10649 10649 10650 10650 10649 10649 10652 10651 10650 10658 10665 10661 10659 10669 10674 10670 10670 10671 10674 10676 10678 10681 10681
10573 10575 10577 10578 10580 10582 10584 10586 10587 10588 10589 10590 10592 10594 10595 10596 10598 10599 10600 10601 10603 10605 10606 10608 10611 10612 10615 10616 10618 10619 10621 10622 10623 10624 10626 10627 10629 10629 10631 10632 10634 10635 10635 10636 10637 10637 10638 10638 10638 10640 10641 10641 10641 10643 10643 10642 10643 10643 10641 10642 10643 10643 10643 10642 10643 10643 10641 10643 10644 10640 10640 10644 10642 10645 10654 10656 10651 10654 10664 10664 10664 10664 10662 10665 10669 10672 10675 10676
10568 10570 10571 10573 10575 10577 10579 10580 10581 10582 10584 10585 10587 10588 10589 10591 10592 10593 10594 10595 10597 10599 10600 10602 10604 10606 10608 10609 10611 10612 10614 10615 10616 10618 10619 10621 10622 10623 10624 10626 10627 10628 10629 10629 10630 10631 10631 10632 10633 10634 10635 10635 10636 10637 10635 10636 10637 10637 10636 10635 10637 10636 10635 10638 10638 10635 10633 10636 10638 10631 10633 10638 10636 10641 10648 10646 10646 10651 10655 10655 10656 10658 10657 10661 10665 10666 10668 10670
10563 10564 10566 10568 10570 10572 10574 10575 10576 10577 10579 10580 10582 10583 10584 10585 10586 10587 10588 10590 10591 10593 10594 10596 10598 10600 10602 10603 10604 10606 10608 10609 10610 10611 10613 10614 10616 10617 10618 10620 10621 10622 10622 10623 10624 10625 10625 10626 10627 10628 10629 10630 10631 10630 10630 10631 10630 10630 10630 10629 10630 10628 10630 10635 10631 10626 10626 10631 10632 10623 10626 10631 10629 10637 10643 10640 10641 10645 10647 10647 10648 10650 10652 10655 10658 10660 10662 10665
10557 10559 10561 10563 10565 10567 10569 10570 10571 10572 10574 10575 10577 10578 10579 10580 10581 10582 10583 10585 10586 10587 10589 10591 10592 10594 10596 10597 10598 10600 10602 10603 10604 10605 10606 10608 10610 10612 10613 10614 10615 10616 10617 10618 10618 10619 10620 10621 10622 10623 10624 10624 10625 10625 10624 10625 10624 10625 10624 10624 10624 10620 10625 10631 10625 10620 10621 10628 10627 10618 10619 10622 10624 10636 10638 10633 10636 10638 10640 10642 10642 10644 10645 10647 10650 10652 10654 10659
10552 10554 10556 10558 10560 10562 10563 10565 10566 10567 10569 10571 10572 10573 10574 10575 10576 10578 10579 10580 10581 10582 10583 10585 10586 10589 10591 10591 10593 10595 10597 10597 10598 10600 10601 10603 10605 10606 10608 10609 10610 10611 10611 10612 10613 10614 10615 10616 10616 10617 10618 10618 10619 10619 10619 10619 10620 10619 10619 10620 10619 10615 10619 10625 10623 10617 10616 10624 10623 10613 10613 10614 10620 10633 10632 10626 10631 10633 10634 10635 10637 10639 10640 10642 10644 10646 10648 10652
10547 10549 10551 10553 10555 10557 10558 10559 10561 10562 10564 10566 10567 10567 10569 10570 10571 10573 10574 10575 10576 10577 10579 10580 10581 10584 10586 10586 10588 10590 10591 10592 10594 10595 10596 10597 10599 10600 10602 10603 10604 10605 10606 10607 10608 10608 10609 10610 10611 10612 10612 10613 10613 10613 10614 10614 10615 10615 10615 10616 10615 10612 10613 10617 10620 10617 10612 10618 10618 10609 10608 10609 10615 10626 10626 10623 10625 10628 10628 10629 10632 10634 10634 10635 10637 10639 10642 10644
10542 10543 10545 10547 10549 10551 10553 10554 10555 10558 10559 10560 10561 10562 10564 10565 10567 10568 10569 10570 10571 10572 10574 10575 10577 10579 10581 10581 10583 10584 10586 10588 10589 10590 10591 10592 10593 10595 10596 10598 10599 10600 10601 10602 10602 10603 10603 10604 10605 10606 10607 10608 10608 10609 10610 10609 10609 10610 10611 10612 10611 10608 10607 10609 10615 10617 10611 10610 10612 10608 10605 10606 10612 10618 10621 10621 10620 10622 10624 10623 10625 10629 10630 10630 10630 10631 10634 10637
10536 10538 10540 10542 10544 10546 10547 10548 10550 10552 10554 10555 10556 10557 10559 10560 10562 10564 10564 10565 10567 10568 10569 10570 10573 10574 10576 10577 10578 10579 10581 10583 10584 10585 10585 10586 10587 10589 10590 10592 10593 10594 10595 10596 10597 10597 10598 10599 10600 10601 10603 10603 10603 10604 10605 10604 10604 10605 10606 10608 10606 10604 10603 10604 10609 10614 10610 10605 10606 10606 10603 10603 10607 10610 10614 10618 10617 10616 10619 10620 10620 10623 10626 10626 10626 10627 10629 10631
10531 10532 10534 10536 10538 10540 10542 10543 10545 10547 10548 10550 10551 10552 10554 10555 10557 10558 10559 10561 10562 10563 10564 10566 10567 10569 10571 10572 10573 10574 10575 10577 10578 10579 10580 10581 10582 10583 10585 10586 10587 10589 10590 10590 10591 10592 10592 10594 10595 10597 10599 10598 10598 10600 10600 10599 10600 10601 10602 10602 10601 10600 10598 10598 10605 10609 10607 10602 10601 10602 10602 10601 10602 10603 10607 10613 10615 10613 10613 10616 10616 10617 10620 10621 10622 10624 10625 10625
10526 10527 10529 10531 10533 10535 10536 10538 10539 10541 10543 10544 10545 10547 10548 10550 10552 10553 10555 10556 10557 10558 10560 10561 10562 10564 10566 10567 10567 10568 10569 10571 10573 10573 10574 10576 10577 10578 10579 10580 10582 10583 10584 10585 10586 10586 10588 10589 10592 10594 10594 10593 10594 10595 10595 10595 10596 10597 10597 10597 10597 10596 10593 10592 10600 10604 10601 10598 10597 10597 10599 10598 10597 10597 10600 10606 10611 10610 10609 10612 10613 10612 10614 10615 10616 10619 10622 10621
10521 10522 10524 10526 10528 10529 10531 10533 10534 10535 10537 10538 10540 10542 10543 10545 10546 10548 10550 10551 10552 10554 10555 10556 10557 10559 10561 10561 10561 10562 10564 10566 10567 10568 10569 10570 10572 10573 10573 10575 10577 10578 10579 10580 10581 10582 10583 10585 10589 10590 10588 10588 10590 10591 10591 10591 10592 10593 10593 10592 10592 10592 10589 10587 10593 10597 10597 10595 10593 10594 10594 10593 10594 10593 10594 10599 10603 10604 10605 10607 10608 10608 10608 10609 10610 10614 10618 10617
10517 10518 10519 10521 10522 10524 10525 10527 10528 10530 10531 10533 10535 10536 10538 10539 10541 10543 10545 10546 10547 10549 10550 10551 10552 10553 10555 10556 10556 10556 10559 10561 10561 10562 10563 10564 10567 10567 10568 10570 10572 10573 10574 10575 10577 10578 10578 10582 10586 10584 10582 10584 10585 10585 10587 10587 10588 10588 10588 10588 10587 10587 10586 10582 10586 10592 10593 10591 10589 10590 10590 10589 10589 10589 10588 10591 10595 10597 10599 10602 10603 10603 10603 10603 10604 10608 10613 10613
10513 10514 10515 10516 10518 10519 10520 10522 10523 10524 10526 10528 10529 10531 10532 10534 10535 10537 10539 10541 10543 10544 10545 10546 10546 10548 10550 10550 10549 10551 10554 10555 10556 10557 10557 10559 10561 10562 10564 10566 10566 10567 10569 10572 10573 10572 10574 10580 10580 10576 10576 10580 10580 10581 10582 10583 10583 10584 10584 10583 10582 10583 10582 10579 10582 10586 10586 10586 10585 10585 10586 10584 10584 10584 10582 10584 10587 10590 10593 10596 10598 10598 10598 10598 10598 10601 10606 10608
10509 10510 10511 10512 10513 10514 10515 10517 10518 10519 10521 10523 10524 10525 10527 10529 10530 10531 10533 10536 10538 10539 10539 10541 10541 10543 10544 10544 10544 10547 10549 10550 10552 10553 10553 10554 10556 10557 10559 10559 10560 10563 10564 10567 10567 10566 10571 10577 10573 10570 10572 10575 10575 10576 10578 10578 10579 10579 10579 10579 10578 10578 10578 10577 10579 10579 10578 10579 10580 10580 10581 10580 10579 10579 10576 10577 10581 10584 10586 10589 10592 10592 10592 10592 10591 10593 10598 10601
10504 10506 10507 10508 10509 10510 10511 10512 10513 10515 10516 10518 10519 10521 10523 10524 10525 10526 10528 10531 10533 10534 10534 10536 10537 10538 10539 10540 10540 10542 10544 10545 10548 10550 10549 10550 10551 10553 10554 10554 10555 10557 10559 10562 10561 10560 10567 10571 10566 10565 10568 10569 10571 10572 10573 10574 10574 10574 10574 10574 10575 10574 10574 10574 10574 10574 10574 10573 10574 10576 10576 10575 10575 10573 10570 10571 10577 10579 10578 10581 10585 10586 10586 10586 10585 10586 10589 10592
10500 10501 10502 10503 10504 10505 10506 10507 10508 10510 10512 10513 10515 10516 10518 10519 10519 10521 10524 10526 10527 10529 10530 10531 10532 10533 10536 10537 10536 10536 10539 10540 10544 10546 10546 10545 10546 10548 10548 10549 10550 10550 10554 10556 10554 10555 10562 10565 10561 10561 10562 10564 10566 10567 10568 10570 10569 10569 10570 10570 10570 10570 10570 10570 10568 10569 10570 10568 10570 10572 10570 10571 10570 10567 10565 10568 10572 10573 10573 10574 10577 10579 10581 10582 10580 10580 10582 10583
10495 10497 10498 10499 10500 10501 10502 10503 10504 10506 10507 10508 10510 10511 10513 10514 10515 10517 10519 10521 10523 10524 10525 10526 10527 10528 10532 10533 10530 10532 10534 10535 10538 10541 10541 10540 10542 10542 10543 10545 10545 10544 10549 10550 10547 10551 10556 10557 10556 10556 10557 10559 10561 10562 10564 10565 10562 10565 10566 10564 10564 10565 10566 10566 10564 10564 10564 10564 10566 10566 10564 10565 10565 10563 10561 10563 10566 10568 10569 10569 10570 10573 10575 10576 10575 10575 10576 10576
10490 10492 10493 10494 10495 10496 10497 10498 10499 10501 10502 10504 10505 10506 10508 10509 10510 10513 10514 10517 10518 10518 10520 10522 10522 10524 10528 10528 10526 10527 10529 10530 10533 10536 10536 10536 10537 10537 10537 10540 10539 10539 10543 10543 10542 10546 10550 10552 10551 10551 10552 10554 10555 10558 10560 10559 10557 10561 10562 10559 10559 10560 10561 10560 10559 10559 10559 10561 10562 10559 10558 10560 10560 10559 10557 10557 10562 10563 10563 10564 10565 10566 10568 10570 10572 10571 10571 10571
10485 10487 10488 10489 10490 10491 10492 10493 10495 10496 10497 10499 10500 10501 10503 10504 10506 10508 10510 10513 10512 10512 10516 10518 10518 10521 10522 10521 10522 10523 10523 10524 10527 10530 10531 10531 10532 10532 10532 10534 10534 10534 10537 10538 10538 10541 10545 10547 10546 10547 10548 10549 10551 10553 10554 10553 10553 10556 10556 10554 10555 10555 10555 10555 10554 10554 10555 10557 10557 10553 10553 10555 10556 10556 10552 10551 10558 10560 10557 10557 10561 10562 10561 10565 10567 10565 10565 10568
10480 10481 10482 10484 10485 10486 10487 10488 10489 10491 10492 10494 10495 10497 10498 10500 10502 10505 10507 10509 10507 10507 10511 10512 10514 10517 10516 10517 10518 10517 10517 10518 10521 10525 10526 10526 10526 10526 10527 10528 10529 10529 10532 10534 10534 10536 10540 10542 10541 10543 10544 10544 10547 10548 10549 10548 10548 10549 10549 10549 10549 10549 10549 10549 10549 10550 10551 10553 10551 10548 10549 10551 10552 10552 10546 10546 10553 10555 10552 10551 10556 10557 10556 10559 10560 10558 10561 10564
10474 10476 10477 10478 10480 10481 10482 10483 10484 10486 10487 10489 10490 10492 10493 10496 10499 10501 10502 10503 10501 10501 10503 10506 10511 10512 10511 10512 10512 10510 10512 10513 10515 10520 10521 10520 10520 10520 10522 10523 10523 10525 10527 10529 10529 10531 10535 10536 10537 10538 10538 10540 10542 10542 10544 10544 10543 10544 10544 10543 10543 10543 10543 10544 10545 10545 10546 10546 10545 10544 10546 10546 10547 10545 10541 10543 10548 10548 10546 10546 10550 10552 10551 10553 10552 10552 10556 10558
10468 10470 10471 10472 10474 10475 10476 10478 10479 10481 10482 10483 10485 10486 10489 10492 10494 10494 10496 10498 10496 10495 10497 10501 10506 10507 10507 10506 10503 10504 10508 10508 10510 10514 10515 10515 10515 10515 10517 10517 10518 10521 10521 10523 10525 10526 10528 10531 10532 10532 10534 10536 10537 10538 10539 10539 10538 10540 10539 10537 10537 10536 10537 10538 10539 10540 10540 10540 10539 10541 10542 10541 10541 10538 10535 10540 10543 10541 10539 10540 10544 10546 10545 10546 10546 10547 10551 10552
10463 10464 10465 10466 10467 10469 10471 10472 10474 10475 10476 10478 10480 10481 10485 10487 10487 10488 10490 10491 10491 10490 10492 10495 10499 10501 10502 10500 10496 10498 10503 10503 10504 10509 10510 10509 10509 10510 10511 10512 10513 10515 10516 10518 10519 10521 10523 10524 10525 10528 10531 10532 10531 10533 10534 10533 10533 10534 10533 10531 10530 10530 10531 10532 10533 10534 10534 10535 10535 10537 10537 10536 10536 10533 10530 10534 10536 10534 10533 10534 10537 10539 10540 10541 10540 10542 10545 10545
10458 10459 10460 10460 10462 10463 10465 10466 10468 10469 10471 10473 10474 10477 10480 10480 10480 10481 10482 10484 10486 10487 10487 10489 10492 10495 10495 10493 10491 10494 10497 10497 10499 10503 10504 10504 10504 10503 10504 10506 10508 10509 10511 10512 10513 10516 10518 10516 10518 10525 10527 10526 10525 10527 10528 10528 10528 10527 10527 10525 10523 10524 10525 10525 10526 10528 10529 10530 10531 10531 10531 10530 10531 10527 10524 10527 10528 10527 10528 10528 10529 10531 10534 10535 10535 10536 10539 10538
10454 10454 10454 10454 10456 10457 10458 10460 10461 10463 10465 10467 10470 10473 10474 10474 10474 10473 10475 10479 10481 10481 10481 10483 10486 10487 10487 10487 10487 10488 10490 10490 10494 10498 10498 10499 10498 10495 10497 10500 10502 10504 10506 10507 10508 10511 10510 10508 10514 10520 10519 10518 10520 10522 10522 10522 10521 10521 10521 10518 10516 10517 10518 10518 10519 10520 10522 10524 10524 10525 10525 10524 10523 10520 10517 10520 10521 10521 10522 10522 10523 10525 10527 10528 10529 10530 10531 10531
10449 10450 10449 10449 10450 10451 10452 10454 10455 10457 10459 10461 10465 10466 10466 10467 10467 10466 10468 10473 10474 10474 10476 10477 10478 10480 10480 10481 10483 10483 10483 10485 10489 10492 10491 10490 10490 10488 10491 10494 10494 10497 10501 10501 10502 10503 10502 10503 10509 10512 10509 10511 10516 10515 10515 10516 10515 10515 10513 10510 10511 10512 10510 10510 10512 10513 10516 10518 10517 10518 10519 10518 10515 10511 10511 10514 10514 10515 10516 10515 10517 10519 10519 10522 10524 10523 10523 10524
10444 10444 10444 10445 10445 10445 10446 10447 10449 10451 10452 10455 10458 10458 10459 10459 10460 10459 10461 10467 10468 10467 10469 10471 10471 10473 10473 10474 10477 10477 10477 10479 10482 10484 10483 10482 10483 10484 10485 10486 10487 10490 10495 10495 10494 10496 10498 10497 10501 10504 10502 10504 10508 10509 10508 10508 10508 10509 10507 10505 10506 10505 10503 10503 10504 10505 10508 10511 10510 10510 10511 10511 10507 10502 10505 10510 10509 10507 10508 10508 10509 10511 10513 10517 10518 10515 10515 10517
10440 10439 10439 10440 10439 10439 10441 10442 10443 10445 10446 10449 10450 10450 10451 10451 10452 10452 10455 10460 10460 10459 10462 10464 10465 10466 10466 10467 10470 10470 10470 10472 10473 10476 10476 10474 10477 10480 10477 10478 10482 10483 10486 10488 10486 10490 10493 10491 10493 10496 10495 10496 10501 10501 10500 10500 10501 10501 10500 10499 10499 10499 10497 10496 10496 10498 10501 10503 10502 10502 10503 10502 10500 10497 10499 10503 10504 10501 10501 10500 10500 10503 10507 10509 10509 10507 10508 10510
10434 10434 10435 10435 10432 10434 10436 10437 10438 10440 10441 10442 10442 10442 10442 10444 10444 10446 10450 10453 10452 10453 10456 10457 10458 10460 10459 10460 10463 10463 10462 10465 10466 10469 10468 10465 10469 10473 10470 10472 10477 10476 10478 10480 10477 10482 10488 10487 10486 10486 10486 10489 10493 10492 10491 10493 10494 10493 10492 10492 10493 10494 10491 10490 10490 10491 10494 10495 10494 10495 10496 10495 10495 10494 10493 10496 10497 10495 10493 10491 10492 10497 10500 10500 10500 10501 10502 10503
10428 10429 10431 10428 10425 10428 10431 10432 10433 10434 10435 10435 10435 10434 10435 10438 10439 10439 10443 10445 10444 10447 10448 10448 10452 10453 10452 10453 10456 10455 10455 10457 10459 10461 10460 10458 10459 10462 10463 10467 10471 10470 10471 10469 10467 10475 10483 10482 10479 10477 10477 10482 10484 10482 10484 10486 10485 10484 10484 10484 10485 10487 10485 10484 10485 10485 10486 10487 10487 10489 10490 10488 10489 10489 10487 10489 10489 10488 10486 10483 10485 10490 10490 10489 10492 10494 10495 10496
10421 10423 10425 10421 10418 10423 10426 10427 10427 10427 10429 10429 10429 10428 10429 10433 10432 10431 10436 10437 10437 10440 10440 10441 10444 10445 10445 10446 10446 10447 10447 10449 10452 10452 10453 10450 10447 10449 10457 10465 10464 10461 10463 10460 10459 10471 10477 10473 10471 10470 10470 10475 10476 10474 10476 10479 10476 10474 10476 10476 10476 10478 10479 10478 10479 10478 10479 10482 10481 10481 10482 10482 10484 10482 10480 10481 10482 10482 10480 10475 10479 10485 10481 10479 10484 10486 10487 10489
10414 10417 10418 10414 10413 10417 10420 10420 10420 10421 10423 10423 10422 10422 10424 10426 10426 10425 10429 10430 10430 10431 10431 10434 10437 10436 10437 10437 10438 10439 10439 10440 10443 10444 10446 10441 10436 10441 10452 10459 10456 10450 10452 10454 10455 10466 10468 10460 10461 10464 10464 10468 10469 10466 10468 10469 10467 10465 10467 10468 10469 10470 10471 10471 10471 10471 10474 10477 10474 10473 10475 10477 10478 10476 10474 10474 10473 10474 10473 10468 10473 10480 10474 10471 10476 10479 10480 10481
10406 10409 10411 10409 10408 10411 10412 10413 10414 10415 10416 10415 10415 10417 10418 10419 10420 10420 10422 10423 10422 10423 10425 10429 10429 10427 10429 10430 10431 10432 10430 10432 10434 10436 10438 10431 10429 10437 10443 10448 10448 10439 10441 10450 10452 10456 10454 10449 10453 10458 10459 10461 10461 10460 10459 10457 10457 10459 10460 10461 10463 10463 10461 10461 10464 10466 10469 10469 10466 10468 10471 10469 10469 10470 10469 10467 10465 10465 10465 10463 10466 10472 10469 10465 10469 10472 10471 10471
10398 10400 10404 10403 10402 10404 10405 10406 10407 10409 10408 10407 10409 10412 10412 10412 10413 10414 10415 10416 10416 10417 10420 10422 10420 10420 10422 10423 10425 10425 10423 10425 10427 10428 10429 10424 10423 10431 10433 10437 10439 10431 10434 10443 10442 10441 10443 10443 10447 10450 10451 10453 10454 10452 10448 10444 10449 10455 10454 10453 10455 10455 10454 10455 10457 10459 10462 10462 10459 10463 10465 10460 10459 10463 10462 10459 10458 10457 10457 10456 10458 10463 10463 10461 10463 10464 10463 10462
10391 10393 10396 10397 10395 10396 10398 10400 10401 10401 10400 10400 10404 10406 10405 10404 10405 10407 10409 10408 10410 10413 10414 10414 10414 10415 10416 10416 10418 10419 10416 10417 10419 10419 10420 10418 10417 10422 10426 10428 10428 10426 10430 10432 10429 10430 10435 10437 10439 10440 10442 10446 10446 10444 10439 10436 10442 10448 10447 10445 10446 10446 10448 10449 10450 10452 10453 10454 10456 10457 10455 10451 10451 10454 10452 10451 10453 10451 10449 10448 10448 10453 10456 10457 10457 10456 10453 10454
10384 10386 10387 10388 10389 10389 10391 10393 10394 10394 10393 10395 10397 10398 10397 10397 10398 10400 10402 10401 10404 10408 10408 10407 10409 10410 10410 10409 10410 10413 10411 10410 10412 10412 10413 10412 10409 10413 10420 10421 10419 10421 10422 10421 10420 10423 10426 10428 10431 10431 10433 10436 10437 10436 10434 10430 10433 10437 10437 10438 10440 10440 10440 10441 10443 10445 10444 10445 10451 10450 10444 10442 10446 10445 10441 10443 10446 10444 10442 10441 10441 10443 10447 10450 10450 10446 10444 10447
10377 10377 10378 10380 10381 10382 10384 10386 10386 10386 10386 10388 10389 10390 10391 10391 10390 10392 10395 10394 10397 10402 10401 10399 10403 10404 10402 10402 10403 10406 10406 10404 10406 10407 10406 10406 10404 10406 10412 10412 10412 10415 10414 10411 10413 10416 10418 10420 10421 10420 10423 10427 10428 10428 10427 10424 10424 10426 10427 10430 10433 10433 10432 10432 10435 10438 10435 10436 10444 10443 10435 10435 10439 10436 10432 10432 10435 10436 10436 10434 10434 10433 10435 10442 10444 10439 10436 10437
10368 10369 10370 10371 10372 10374 10378 10378 10378 10378 10379 10380 10381 10384 10385 10384 10383 10385 10387 10387 10390 10395 10394 10393 10397 10396 10394 10396 10397 10399 10401 10400 10401 10401 10400 10400 10399 10399 10402 10405 10407 10409 10407 10404 10405 10409 10411 10411 10410 10412 10415 10417 10419 10419 10418 10417 10416 10417 10418 10422 10424 10424 10424 10425 10427 10430 10427 10428 10435 10434 10428 10430 10430 10425 10423 10423 10424 10427 10427 10425 10426 10425 10425 10432 10436 10432 10427 10428
10359 10361 10362 10362 10363 10367 10369 10369 10370 10370 10371 10372 10374 10377 10378 10377 10377 10376 10378 10382 10385 10387 10387 10388 10390 10388 10387 10389 10390 10392 10396 10396 10395 10394 10394 10394 10394 10392 10394 10397 10400 10401 10402 10399 10396 10400 10404 10402 10402 10405 10407 10409 10411 10410 10409 10409 10407 10408 10412 10414 10415 10415 10416 10418 10419 10419 10418 10420 10423 10422 10422 10426 10422 10414 10414 10415 10415 10415 10415 10414 10417 10418 10417 10421 10425 10423 10421 10421
10350 10352 10354 10354 10356 10359 10360 10360 10361 10360 10362 10366 10368 10370 10371 10369 10369 10368 10370 10377 10380 10378 10378 10382 10383 10382 10380 10380 10383 10389 10392 10388 10386 10388 10388 10387 10387 10387 10388 10389 10391 10393 10396 10394 10391 10391 10394 10396 10395 10396 10399 10404 10403 10401 10401 10400 10398 10403 10408 10407 10406 10407 10409 10410 10409 10410 10410 10410 10410 10412 10416 10418 10412 10405 10407 10409 10406 10404 10404 10405 10408 10409 10409 10411 10413 10413 10414 10414
10341 10343 10345 10346 10348 10351 10351 10351 10351 10351 10356 10360 10360 10361 10362 10361 10363 10363 10364 10370 10372 10369 10371 10376 10376 10373 10372 10373 10379 10384 10382 10379 10379 10381 10380 10379 10380 10381 10382 10383 10384 10386 10386 10386 10386 10384 10385 10388 10388 10387 10392 10397 10395 10392 10391 10390 10393 10400 10402 10398 10397 10398 10399 10401 10401 10402 10402 10399 10400 10404 10406 10406 10403 10400 10401 10400 10397 10396 10398 10399 10398 10398 10398 10398 10399 10401 10404 10406